Location: Eaton Estates
(41.3089°N, 82.0057°W)
Time: 16:47:08
(UTC+00:00)

BlueWalker 3 - Visible Passes

Search period start: 08 December 2022 00:00
Search period end: 18 December 2022 00:00
Orbit: 501 x 518 km, 53.2° (Epoch: 08 December)

Date Brightness Start Highest point End Pass type
(mag) Time Alt. Az. Time Alt. Az. Time Alt. Az.
08 Dec 3.3 00:06:09 10° NW 00:08:29 31° NNW 00:08:29 31° NNW visible
08 Dec 2.2 23:47:43 10° NW 23:51:15 51° NNE 23:51:15 51° NNE visible
09 Dec 2.0 23:29:18 10° NW 23:33:09 55° NE 23:34:13 40° E visible
10 Dec 5.2 01:08:36 10° W 01:09:06 12° W 01:09:06 12° W visible
10 Dec 2.0 23:10:52 10° NW 23:14:44 59° NE 23:17:27 18° ESE visible
11 Dec 4.6 00:50:17 10° W 00:52:21 18° WSW 00:52:21 18° WSW visible
11 Dec 1.9 22:52:25 10° NW 22:56:18 63° NE 23:00:09 10° ESE visible
12 Dec 4.5 00:31:58 10° W 00:34:36 18° SW 00:35:59 15° SSW visible
12 Dec 1.9 22:33:59 10° NW 22:37:53 67° NE 22:41:45 10° ESE visible
13 Dec 4.8 00:13:39 10° W 00:16:09 16° SW 00:18:37 10° SSW visible
13 Dec 5.0 23:55:21 10° W 23:57:40 15° SW 23:59:59 10° SSW visible
14 Dec 5.1 23:37:04 10° W 23:39:12 14° SW 23:41:19 10° SSW visible
15 Dec 5.2 23:18:48 10° W 23:20:43 13° SW 23:22:37 10° SSW visible
16 Dec 5.4 23:00:35 10° W 23:02:14 12° SW 23:03:51 10° SSW visible
17 Dec 5.7 22:42:25 10° WSW 22:43:43 11° SW 22:45:01 10° SW visible
